sat.trackr.live / text

‹ back to catalog

TIME FLIES

NORAD 64564 · 2025-135AN

PAYLOAD ACTIVE UNKNOWN

§ Identity

Operator
Country
US
Launch date
2025-06-23
Launch site
AFWTR
Launch vehicle
Mass (kg)
RCS (m²)

External: N2YO · Heavens-Above · Gunter

§ Orbital elements

Epoch: 2026-05-25T00:42:02.916288Z

Period
96.34 min
Inclination
97.7683°
Eccentricity
0.0002078
Mean motion
14.94773800 rev/d
Perigee alt
581.6 km
Apogee alt
584.5 km
Semi-major
6,961.2 km
B*
2.2525e-4
RAAN
259.7110°
Arg perigee
32.4013°
Mean anomaly
327.7334°
Rev number
5,044

§ Raw data

TIME FLIES1 64564U 25135AN  26145.02920042  .00002391  00000+0  22525-3 0  99912 64564  97.7683 259.7110 0002078  32.4013 327.7334 14.94773800 50447

JSON: /api/v1/satellites/64564 · /tle

For live sub-satellite position, see the globe view (requires WebGL).

§ Visibility from observer

Set your observer location to see the next 7 days of passes ≥ 10°. The values pass through the URL so the page stays shareable.

No JS? Fill the form by hand. The geolocation button needs JavaScript.